Regional Weather Roundup
Issued by NWS

Home | Current Version | Previous Version | Text Only | Print | Product List | Glossary On
Versions: 1 2 3 4 5 6 7 8 9 10 11 12 13 14 15 16 17 18 19 20 21 22 23 24 25 26 27
000
ASUS45 KBOU 301807
RWRCO

WEATHER ROUNDUP FOR COLORADO
NATIONAL WEATHER SERVICE DENVER/BOULDER CO
1200 PM MDT SAT APR 30 2016

NOTE: "FAIR" INDICATES FEW OR NO CLOUDS BELOW 12000 FEET WITH NO
SIGNIFICANT WEATHER AND/OR OBSTRUCTIONS TO VISIBILITY.

COZ001>005-013-030-031-301900-
...NORTHWEST COLORADO...

CITY           SKY/WX    TMP DP  RH WIND       PRES   REMARKS
CRAIG          LGT RAIN  42  33  70 NE12      29.93S
HAYDEN         CLOUDY    39  27  60 E7        29.93R
MEEKER         LGT RAIN  41  34  76 SW8       29.93S
MOUNT WERNER   NOT AVBL
STEAMBOAT SPGS FAIR      37  27  65 CALM      29.92S
WALDEN         CLOUDY    32  21  64 NW7       29.89F WCI  26
$$

COZ006>008-011-301900-
...WEST CENTRAL VALLEYS...

CITY           SKY/WX    TMP DP  RH WIND       PRES   REMARKS
GRAND JUNCTION PTSUNNY   51  32  48 W8        29.90F
MONTROSE       PTSUNNY   51  29  42 NW9       29.90F
EAGLE          LGT RAIN  39  36  87 CALM      29.93R
RIFLE          CLOUDY    47  31  53 VRB6      29.91S
DELTA          NOT AVBL
NUCLA          NOT AVBL
$$

COZ017>023-064>068-301900-
...SOUTHWEST COLORADO...

CITY           SKY/WX    TMP DP  RH WIND       PRES   REMARKS
DURANGO        FAIR      50  28  42 VRB6      29.87F
CORTEZ         CLOUDY    53  33  46 VRB5      29.88F
PAGOSA SPRINGS CLOUDY    43  29  57 SW3       29.91F
TELLURIDE      CLOUDY    38  25  60 W7        29.95S
WOLF CREEK PAS CLOUDY    27  27 100 SW15      29.98S VSB 1/2 WCI  15
$$

COZ009-010-012-014-032>034-037-058>063-301900-
...CENTRAL COLORADO...

CITY           SKY/WX    TMP DP  RH WIND       PRES   REMARKS
ASPEN          CLOUDY    37  29  72 N8        29.89S
BUENA VISTA    PTSUNNY   36  28  73 E3        29.87S
COPPER MTN     NOT AVBL
BERTHOUD PASS  CLOUDY    16   5  62 NE6       29.93R VSB 1/4 WCI   7
COTTONWOOD PAS CLOUDY    36  27  69 SE3       29.89S
GUNNISON       PTSUNNY   36  30  80 E8        29.90S
KREMMLING      PTSUNNY   37  28  70 NW13G21   29.94R
LEADVILLE      CLOUDY    34  21  59 NW8       29.88R WCI  27
MONARCH PASS     N/A     23  21  93 MISG      30.02R
SALIDA         PTSUNNY   44  33  66 S6        29.94F
SUNLIGHT       CLOUDY   N/A N/A N/A CALM      29.98R FOG
WILKERSON PASS SNOW      21  18  86 SE7       29.94R VSB<1/4 WCI  13
$$

COZ069>075-301900-
...SAN LUIS VALLEY/SANGRE DE CRISTO MOUNTAINS...

CITY           SKY/WX    TMP DP  RH WIND       PRES   REMARKS
ALAMOSA        FAIR      45  31  58 VRB3      29.87S
LA VETA PASS   CLOUDY    36  30  80 MISG      29.92R
SAGUACHE       CLOUDY    41  32  70 CALM      29.88S
$$

COZ035-036-038>040-301900-
...NORTHERN COLORADO FRONT RANGE...

CITY           SKY/WX    TMP DP  RH WIND       PRES   REMARKS
DENVER INTL AP LGT SNOW  34  29  82 N20       29.98R FOG     WCI  23
DMNS CITY PARK   N/A     35  33  93 N12G20    29.99S WCI  26
AURORA         LGT SNOW  32  32 100 N16       29.98R FOG     WCI  21
FRONT RANGE AP LGT SNOW  32  30  93 NW16      29.98R WCI  21
ERIE MUNI ARPT CLOUDY    37  35  89 N14G23    30.00S
BOULDER MUN AP CLOUDY    36  32  87 N15G25    30.00R
CENTENNIAL     LGT SNOW  33  31  92 N16       29.97R VSB 1   WCI  23
BROOMFIELD     LGT SNOW  36  34  93 N18G24    29.99R VSB 3/4
FORT COLLINS   CLOUDY    36  32  87 N15       30.02R
LONGMONT       PTSUNNY   40  33  76 N14       30.02S HAZE
$$

COZ041-046-047-076>085-087-088-301900-
...PIKES PEAK/PALMER DIVIDE AND SOUTHERN FOOTHILLS...

CITY           SKY/WX    TMP DP  RH WIND       PRES   REMARKS
COLO. SPRINGS  CLOUDY    35  25  66 N24G35    29.94R WCI  23
A. F. ACADEMY  FLURRIES  32  27  80 NW24      29.94R WCI  19
SCHRIEVER AFB  NOT AVBL
ELLICOTT       NOT AVBL
FALCON         CLOUDY    35  25  67 N13G28    29.93R WCI  26
FORT CARSON    CLOUDY    36  28  75 N25G32    29.92R
LIMON          LGT SNOW  32  29  88 NW26G35   29.90R FOG     WCI  18
MONUMENT HILL  LGT SNOW  30  27  86 N16G29    29.96R WCI  19
TRINIDAD       CLOUDY    41  27  57 N9        29.94R
$$

COZ042>045-048>051-090-091-301900-
...NORTHEAST COLORADO...

CITY           SKY/WX    TMP DP  RH WIND       PRES   REMARKS
GREELEY ARPT   CLOUDY    37  34  87 N18       30.00S
AKRON          SNOW      32  31  96 N23       29.90R VSB 1/2 WCI  19
BURLINGTON     CLOUDY    36  30  79 NW24      29.86R
WRAY           NOT AVBL
STERLING       LGT RAIN  36  34  93 N17       29.91R
HOLYOKE        NOT AVBL
FORT MORGAN    LGT RAIN  34  32  92 NW20      29.96R WCI  23
$$

COZ086-089-092>099-301900-
...SOUTHEAST COLORADO...

CITY           SKY/WX    TMP DP  RH WIND       PRES   REMARKS
PUEBLO         CLOUDY    45  29  53 N17       29.94R
LA JUNTA       FAIR      48  33  56 N24G30    29.93S
LAMAR          PTSUNNY   48  34  58 NW22G28   29.88R
SPRINGFIELD      N/A     46  33  60 NW21G30   29.90R
$$




USA.gov is the U.S. government's official web portal to all federal, state and local government web resources and services.